Weather Roundup
Issued by NWS Corpus Christi, TX

Home | Current Version | Previous Version | Text Only | Print | Product List | Glossary On
Versions: 1 2 3 4 5 6 7 8 9 10 11 12 13 14 15 16 17 18 19 20 21 22 23 24 25 26 27 28 29 30 31 32 33 34 35 36 37 38 39 40 41 42 43 44 45 46 47 48 49 50
000
ASUS44 KCRP 010410
HRRCRP

SOUTH TEXAS REGIONAL WEATHER ROUNDUP
NATIONAL WEATHER SERVICE CORPUS CHRISTI TX
1100 PM CDT FRI OCT 31 2014


TXZ229>244-010500-
...CORPUS CHRISTI AREA OBSERVATIONS...

CITY           SKY/WX    TMP DP  RH WIND       PRES   REMARKS
CORPUS CHRISTI CLEAR     66  47  50 NE13      30.26R
NAS CORPUS CHR CLEAR     70  48  45 NE24      30.24R
ROCKPORT       CLEAR     65  43  44 N13       30.26R
KINGSVILLE NAS CLEAR     59  54  83 N7        30.26R
ALICE          CLEAR     61  50  67 N8        30.26R
FALFURRIAS     CLEAR     62  50  65 N7        30.25R
$$

...VICTORIA AREA OBSERVATIONS...

CITY           SKY/WX    TMP DP  RH WIND       PRES   REMARKS
VICTORIA       CLEAR     58  41  53 N8        30.29R
BEEVILLE       FAIR      62  44  52 NE7       30.28R
PLEASANTON     CLEAR     60  44  55 N6        30.31R
SAN ANTONIO    PTCLDY    61  42  49 N6        30.31R
$$

...LAREDO AREA OBSERVATIONS...

CITY           SKY/WX    TMP DP  RH WIND       PRES   REMARKS
LAREDO         CLEAR     63  51  64 CALM      30.30R
COTULLA        CLEAR     63  48  58 E8        30.29R
DEL RIO        CLEAR     64  42  44 E6        30.27R
MCALLEN        CLEAR     70  56  61 NE5       30.25R
HEBBRONVILLE   CLEAR     60  49  68 N6        30.28R
$$

...OTHER TEXAS OBSERVATIONS...

CITY           SKY/WX    TMP DP  RH WIND       PRES   REMARKS
BROWNSVILLE    CLEAR     65  58  78 NW3       30.23R
HOUSTON        CLEAR     58  45  62 N6        30.27R
COL. STATION   CLEAR     54  42  64 N8        30.31R
AUSTIN         PTCLDY    58  42  55 N13       30.32R
WACO           CLEAR     49  39  68 N6        30.34R
FORT WORTH     PTCLDY    52  33  48 NE12      30.36R
WICHITA FALLS  CLEAR     44  29  55 NE6       30.39S
LUBBOCK        PTCLDY    43  32  65 E8        30.36R
EL PASO        MOCLDY    63  34  33 E7        30.21R
$$

...MARINE OBSERVATIONS...

STATION/POSITION TIME  SKY/WX   TEMP    WIND        PRES    VSBY  WAVE   SWELL
                                AIR SEA DIR/SP/G                  HT/PER HT/PER
                 (UTC)          (F)     (DEG/KT/KT) (MB)    (MI)  (FT/S) (FT/S)
PORT ARANSAS     0400            70 77   10/ 21/ 25 1025.0R
BUOY 90 E PORT A 0400            74 79   20/ 19/ 23 1023.1R         4/ 5
BUOY 45 SE BAFFI 0400            77 80   30/ 16/ 19 1022.8R         4/ 5
BUOY 200 E PT IS 0400            75 80   20/ 19/ 25 1021.2R         5/ 6
BUOY 15 E GALVES 0400            68 76   20/ 23/ 27 1023.2R         4/ 5
$$



USA.gov is the U.S. government's official web portal to all federal, state and local government web resources and services.